DW8855 Weather Reports


Display with metric or nautical units.
time (UTC)temp
F
wind
direction
speed
MPH
gust
MPH
rain 1hr
in
rain 24hr
in
rain mn
in
humidity
%
barometer
mb
20200330054906 42 180 4.0 0.0 0.00 0.00 0.00 69 1007.6
20200330053303 42 179 7.0 0.0 0.00 0.00 0.00 69 1007.8
20200330051809 42 182 6.0 0.0 0.00 0.00 0.00 70 1007.9
20200330050410 41 182 9.0 0.0 0.00 0.00 0.00 75 1007.7
20200330044717 41 209 8.0 0.0 0.00 0.00 0.00 76 1007.6
20200330043207 41 188 7.0 0.0 0.00 0.00 0.00 75 1007.3
20200330041626 42 183 9.0 0.0 0.00 0.00 0.00 72 1007.5
20200330040119 42 196 9.0 0.0 0.00 0.00 0.00 74 1007.2
20200330034638 42 211 7.0 0.0 0.00 0.00 0.00 73 1007.3
20200330033141 42 191 6.0 0.0 0.00 0.00 0.00 72 1007.3
20200330031620 43 193 8.0 0.0 0.00 0.00 0.00 70 1007.3
20200330030211 44 206 9.0 0.0 0.00 0.00 0.00 66 1007.5
20200330024603 44 223 7.0 0.0 0.00 0.00 0.00 63 1007.7
20200330023229 45 223 7.0 0.0 0.00 0.00 0.00 62 1007.5
20200330021622 45 222 7.0 0.0 0.00 0.00 0.00 61 1007.4
20200330020238 45 210 7.0 0.0 0.00 0.00 0.00 61 1007.5
20200330014718 46 223 6.0 0.0 0.00 0.00 0.00 62 1007.4
20200330013124 46 240 5.0 0.0 0.00 0.00 0.00 62 1007.3
20200330011644 46 280 8.0 0.0 0.00 0.00 0.00 63 1007.5
20200330010243 46 254 7.0 0.0 0.00 0.00 0.00 65 1007.6
20200330004624 45 259 13.0 0.0 0.00 0.00 0.00 65 1007.9
20200330003123 48 240 12.0 0.0 0.00 0.00 0.00 52 1007.6
20200330001638 49 242 15.0 0.0 0.00 0.00 0.00 52 1007.3
20200330000136 50 268 10.0 0.0 0.00 0.00 0.00 47 1007.2
20200329234631 50 242 9.0 0.0 0.00 0.00 0.00 47 1007.4
20200329233114 50 213 9.0 0.0 0.00 0.00 0.00 49 1007.3
20200329231546 51 234 7.0 0.0 0.00 0.00 0.00 47 1007.3
20200329230104 50 198 9.0 0.0 0.00 0.00 0.00 50 1007.6
20200329224609 50 193 7.0 0.0 0.00 0.00 0.00 52 1007.9
20200329223154 51 238 6.0 0.0 0.00 0.00 0.00 44 1007.8
20200329221607 51 213 10.0 0.0 0.00 0.00 0.00 46 1008.0
20200329220049 50 224 10.0 0.0 0.00 0.00 0.00 49 1008.2
20200329214633 50 215 11.0 0.0 0.00 0.00 0.00 47 1008.3
20200329213056 50 205 11.0 0.0 0.00 0.00 0.00 47 1008.4
20200329211632 51 201 11.0 0.0 0.00 0.00 0.00 45 1008.5
20200329210218 49 185 12.0 0.0 0.00 0.00 0.00 48 1008.8
20200329204544 50 179 9.0 0.0 0.00 0.00 0.00 51 1008.9
20200329203105 50 232 8.0 0.0 0.00 0.00 0.00 50 1008.8
20200329201629 50 190 9.0 0.0 0.00 0.00 0.00 51 1009.2
20200329200038 50 217 10.0 0.0 0.00 0.00 0.00 48 1009.3
20200329194633 50 167 8.0 0.0 0.00 0.00 0.00 53 1009.1
20200329193024 50 232 9.0 0.0 0.00 0.00 0.00 47 1009.1
20200329191543 51 275 9.0 0.0 0.00 0.00 0.00 47 1009.3
20200329190025 50 219 11.0 0.0 0.00 0.00 0.00 49 1009.2
20200329184524 49 167 12.0 0.0 0.00 0.00 0.00 53 1009.2
20200329183025 50 173 10.0 0.0 0.00 0.00 0.00 52 1009.1
20200329181520 49 195 9.0 0.0 0.00 0.00 0.00 54 1009.0
20200329180050 47 217 10.0 0.0 0.00 0.00 0.00 57 1009.1
20200329174536 47 155 9.0 0.0 0.00 0.00 0.00 58 1009.1
20200329173035 46 198 9.0 0.0 0.00 0.00 0.00 60 1009.2
20200329171526 46 145 8.0 0.0 0.00 0.00 0.00 60 1009.2
20200329170056 44 181 6.0 0.0 0.00 0.00 0.00 66 1009.2
20200329164512 43 190 6.0 0.0 0.00 0.00 0.00 67 1009.2
20200329163143 42 207 5.0 0.0 0.00 0.00 0.00 70 1009.2
20200329161727 40 196 1.0 0.0 0.00 0.00 0.00 80 1009.2
20200329160147 39 198 0.0 0.0 0.00 0.00 0.00 79 1009.2
20200329154642 40 196 4.0 0.0 0.00 0.00 0.00 73 1009.2
20200329153207 40 194 3.0 0.0 0.00 0.00 0.00 73 1009.1
20200329151655 38 115 3.0 0.0 0.00 0.00 0.00 83 1008.8
20200329150135 38 115 5.0 0.0 0.00 0.00 0.00 83 1008.9
20200329144621 37 112 2.0 0.0 0.00 0.00 0.00 84 1009.2
20200329143054 36 112 1.0 0.0 0.00 0.00 0.00 87 1009.1
20200329141631 36 112 2.0 0.0 0.00 0.00 0.00 86 1009.1
20200329140110 37 112 2.0 0.0 0.00 0.00 0.00 83 1009.1
20200329134745 36 112 3.0 0.0 0.00 0.00 0.00 84 1009.1
20200329133154 38 119 1.0 0.0 0.00 0.00 0.00 82 1009.0
20200329131602 38 119 3.0 0.0 0.00 0.00 0.00 81 1009.0
20200329130101 37 118 0.0 0.0 0.00 0.00 0.00 83 1009.0
20200329124650 38 118 4.0 0.0 0.00 0.00 0.00 82 1009.0
20200329123117 38 107 4.0 0.0 0.00 0.00 0.00 81 1009.1
20200329121648 39 107 4.0 0.0 0.00 0.00 0.00 79 1009.3
20200329120123 39 107 5.0 0.0 0.00 0.00 0.00 78 1009.1
20200329114644 38 107 5.0 0.0 0.00 0.00 0.00 79 1009.1
20200329113207 37 106 5.0 0.0 0.00 0.00 0.00 82 1009.0
20200329111620 37 106 4.0 0.0 0.00 0.00 0.00 84 1009.2
20200329110116 36 105 6.0 0.0 0.00 0.00 0.00 86 1009.1
20200329104547 36 97 4.0 0.0 0.00 0.00 0.00 88 1009.1
20200329103105 36 93 4.0 0.0 0.00 0.00 0.00 86 1009.4
20200329101541 36 86 0.0 0.0 0.00 0.00 0.00 86 1009.4
20200329100204 37 86 2.0 0.0 0.00 0.00 0.00 85 1009.6
20200329094539 37 86 0.0 0.0 0.00 0.00 0.00 86 1009.6
20200329093113 37 86 0.0 0.0 0.00 0.00 0.00 85 1009.6
20200329091616 37 86 0.0 0.0 0.00 0.00 0.00 85 1009.8
20200329090114 38 86 0.0 0.0 0.00 0.00 0.00 85 1009.9
20200329084533 38 86 1.0 0.0 0.00 0.00 0.00 86 1009.9
20200329083030 39 86 1.0 0.0 0.00 0.00 0.00 84 1010.1
20200329081544 39 86 0.0 0.0 0.00 0.00 0.00 84 1010.1
20200329080133 39 86 0.0 0.0 0.00 0.00 0.00 85 1010.2
20200329074602 39 86 0.0 0.0 0.00 0.00 0.00 85 1010.2
20200329073044 38 86 0.0 0.0 0.00 0.00 0.00 85 1010.3
20200329071554 39 86 0.0 0.0 0.00 0.00 0.00 84 1010.3
20200329070028 39 86 0.0 0.0 0.00 0.00 0.00 84 1010.3
20200329064528 39 86 0.0 0.0 0.00 0.00 0.00 87 1010.4
20200329061524 40 86 0.0 0.0 0.00 0.00 0.00 86 1010.4
20200329060025 39 86 0.0 0.0 0.00 0.00 0.00 86 1010.5